Weather History for Danbury, CT

Change the Weather History Date:

Monday, January 15, 2001

  Actual Average Record
Temperature  
Mean Temperature 34 °F -  
Max Temperature 35 °F 32 °F 54 °F (1962)
Min Temperature 32 °F 18 °F -9 °F (1957)
Degree Days  
Heating Degree Days 32    
Moisture  
Dew Point 31 °F    
Average Humidity 88    
Maximum Humidity 96    
Minimum Humidity 78    
Precipitation  
Precipitation 0.19 in - - ()
Sea Level Pressure  
Sea Level Pressure 30.08 in    
Wind  
Wind Speed 3 mph (NE)    
Max Wind Speed 8 mph    
Max Gust Speed -    
Visibility 3 miles    
Events Fog , Rain    
Averages and records for this station are not official NWS values.
T = Trace of Precipitation, MM = Missing Value Source: NWS Daily Summary

Daily Weather History Graph

Daily Weather History Graph

Search for Another Location

Airport:

Trip Planner

Search our weather history database for the weather conditions in past years. The results will help you decide how hot, cold, wet, or windy it might be!

Date:

Astronomy

Jan. 15, 2001 Rise Set
Actual Time 7:17 AM EST 4:49 PM EST
Civil Twilight 6:47 AM EST 5:20 PM EST
Nautical Twilight 6:13 AM EST 5:54 PM EST
Astronomical Twilight 5:39 AM EST 6:27 PM EST
Moon 11:54 PM EST (1/15) 11:12 AM EST (1/15)
Length of Visible Light 10h 32m
Length of Day
9h 31m
Waning Gibbous, 59% of the Moon is Illuminated
Jan 15
Waning Gibbous
Jan 16
Last Quarter
Jan 24
New
Feb 1
First Quarter
Feb 8
Full

Hourly Weather History & Observations

Time (EST) Temp. Windchill Dew Point Humidity Pressure Visibility Wind Dir Wind Speed Gust Speed Precip Events Conditions
12:53 AM 32.0 °F - 27.0 °F 82% 30.23 in 5.0 mi Calm Calm - N/A   Haze
1:53 AM 32.0 °F 27.5 °F 27.0 °F 82% 30.21 in 6.0 mi NNE 4.6 mph - N/A   Haze
2:53 AM 33.1 °F - 27.0 °F 78% 30.21 in 6.0 mi Calm Calm - N/A   Haze
3:53 AM 33.1 °F 28.7 °F 27.0 °F 78% 30.19 in 6.0 mi NE 4.6 mph - 0.00 in   Haze
4:53 AM 32.0 °F - 28.9 °F 88% 30.20 in 4.0 mi Calm Calm - 0.01 in Rain Light Rain
5:16 AM 33.8 °F 27.7 °F 30.2 °F 87% 30.16 in 3.0 mi ENE 6.9 mph - 0.03 in Rain Light Freezing Rain
5:53 AM 33.1 °F - 30.0 °F 89% 30.19 in 4.0 mi Calm Calm - 0.05 in Rain Light Freezing Rain
6:03 AM 33.8 °F 30.8 °F 30.2 °F 87% 30.19 in 2.5 mi NW 3.5 mph - 0.01 in Rain Light Freezing Rain
6:13 AM 33.8 °F 29.6 °F 30.2 °F 87% 30.18 in 2.5 mi North 4.6 mph - 0.02 in Rain Light Freezing Rain
6:26 AM 33.8 °F 30.8 °F 30.2 °F 87% 30.17 in 3.0 mi NE 3.5 mph - 0.03 in Rain Light Freezing Rain
6:53 AM 33.1 °F 28.7 °F 30.9 °F 92% 30.18 in 4.0 mi East 4.6 mph - 0.04 in Rain Light Freezing Rain
7:14 AM 33.8 °F 30.8 °F 30.2 °F 87% 30.18 in 4.0 mi East 3.5 mph - 0.00 in Rain Light Rain
7:24 AM 33.8 °F 29.6 °F 30.2 °F 87% 30.18 in 3.0 mi ENE 4.6 mph - 0.01 in Rain Light Freezing Rain
7:46 AM 33.8 °F 28.6 °F 30.2 °F 87% 30.16 in 2.5 mi ENE 5.8 mph - 0.02 in Rain Light Rain
7:53 AM 33.1 °F 26.9 °F 30.9 °F 92% 30.18 in 2.0 mi ENE 6.9 mph - 0.03 in Rain Light Freezing Rain
8:25 AM 33.8 °F 28.6 °F 32.0 °F 93% 30.16 in 2.0 mi ENE 5.8 mph - 0.00 in   Overcast
8:53 AM 33.1 °F 28.7 °F 32.0 °F 96% 30.17 in 2.0 mi NE 4.6 mph - 0.01 in   Overcast
9:00 AM 33.8 °F 30.8 °F 32.0 °F 93% 30.15 in 1.8 mi NNE 3.5 mph - N/A   Overcast
9:53 AM 34.0 °F 28.8 °F 30.9 °F 89% 30.16 in 1.2 mi ENE 5.8 mph - 0.02 in   Overcast
10:02 AM 33.8 °F 29.6 °F 30.2 °F 87% 30.14 in 1.0 mi ENE 4.6 mph - 0.00 in   Mist
10:53 AM 34.0 °F 27.2 °F 32.0 °F 92% 30.12 in 1.0 mi NE 8.1 mph - 0.01 in   Mist
11:01 AM 33.8 °F 28.6 °F 32.0 °F 93% 30.10 in 1.2 mi ENE 5.8 mph - N/A   Overcast
11:53 AM 34.0 °F 28.8 °F 32.0 °F 92% 30.08 in 1.0 mi ENE 5.8 mph - N/A   Mist
12:53 PM 35.1 °F 31.0 °F 32.0 °F 89% 30.06 in 1.0 mi NE 4.6 mph - N/A   Mist
1:20 PM 35.6 °F 31.7 °F 30.2 °F 81% 30.04 in 1.2 mi NE 4.6 mph - N/A   Haze
1:53 PM 35.1 °F 31.0 °F 32.0 °F 89% 30.03 in 1.0 mi NE 4.6 mph - 0.01 in   Mist
2:07 PM 35.6 °F 29.9 °F 30.2 °F 81% 30.01 in 1.2 mi ENE 6.9 mph - N/A   Overcast
2:53 PM 35.1 °F 31.0 °F 30.9 °F 85% 30.03 in 2.0 mi NE 4.6 mph - N/A   Overcast
3:06 PM 35.6 °F 31.7 °F 32.0 °F 87% 30.02 in 2.5 mi NE 4.6 mph - N/A   Overcast
3:22 PM 35.6 °F - 32.0 °F 87% 30.03 in 1.8 mi Calm Calm - N/A   Overcast
3:53 PM 35.1 °F 32.2 °F 30.9 °F 85% 30.03 in 1.2 mi ENE 3.5 mph - 0.00 in   Overcast
4:03 PM 35.6 °F 31.7 °F 32.0 °F 87% 30.02 in 1.5 mi NNE 4.6 mph - N/A   Overcast
4:20 PM 35.6 °F 32.8 °F 32.0 °F 87% 30.01 in 2.0 mi NE 3.5 mph - N/A   Overcast
4:30 PM 35.6 °F 30.7 °F 30.2 °F 81% 30.01 in 2.0 mi ENE 5.8 mph - N/A   Overcast
4:46 PM 35.6 °F 31.7 °F 32.0 °F 87% 30.01 in 4.0 mi ENE 4.6 mph - N/A   Overcast
4:53 PM 35.1 °F - 30.0 °F 82% 30.02 in 4.0 mi Calm Calm - N/A   Haze
5:05 PM 35.6 °F 32.8 °F 30.2 °F 81% 30.01 in 3.0 mi NNE 3.5 mph - N/A   Overcast
5:29 PM 35.6 °F - 32.0 °F 87% 30.01 in 6.0 mi Calm Calm - N/A   Overcast
5:53 PM 35.1 °F 31.0 °F 30.9 °F 85% 30.01 in 5.0 mi ENE 4.6 mph - N/A   Overcast
6:45 PM 33.8 °F 29.6 °F 30.2 °F 87% 30.01 in 5.0 mi ENE 4.6 mph - N/A   Overcast
6:53 PM 34.0 °F 31.0 °F 32.0 °F 92% 30.02 in 4.0 mi East 3.5 mph - N/A   Overcast
7:22 PM 33.8 °F 30.8 °F 32.0 °F 93% 29.99 in 8.0 mi East 3.5 mph - N/A   Overcast
7:53 PM 34.0 °F 31.0 °F 30.9 °F 89% 30.01 in 9.0 mi East 3.5 mph - N/A   Overcast
8:53 PM 33.1 °F - 32.0 °F 96% 29.99 in 4.0 mi Calm Calm - N/A   Overcast
9:53 PM 33.1 °F - 32.0 °F 96% 29.99 in 4.0 mi Calm Calm - 0.00 in Rain Light Rain
10:25 PM 33.8 °F - 32.0 °F 93% 29.98 in 2.0 mi Calm Calm - 0.01 in   Overcast
10:34 PM 33.8 °F - 32.0 °F 93% 29.99 in 1.2 mi Calm Calm - 0.01 in   Overcast
10:36 PM 33.8 °F - 32.0 °F 93% 29.98 in 1.0 mi Calm Calm - 0.01 in   Mist
10:44 PM 33.8 °F - 30.2 °F 87% 29.98 in 0.5 mi Calm Calm - 0.01 in Fog Fog
10:53 PM 33.1 °F - 30.9 °F 92% 29.99 in 0.5 mi Calm Calm - 0.01 in Fog Fog
11:53 PM 33.1 °F - 32.0 °F 96% 29.96 in 0.5 mi Calm Calm - 0.00 in Fog Fog